Theta_e
356 356 357 356 357 358 359 357 358 358 359 358 359 358 357 356 357 356 358 357 356 356 357 356 358 359 357 356 357 360 360 360 361 358 356 357 359 358 359 359 360 359 358 358 359 358 358 358 358 357 357 357 357 358 357 357 358 357 358 357 357 357 357 357 357 357 357 357 357 357 357 356 356 355 355 354 354 353 354 353 354 354 354 353 353
357 358 357 358 358 359 360 359 359 360 359 358 360 359 356 357 356 357 356 360 360 360 361 356 354 355 357 356 355 354 360 359 360 359 360 358 359 359 359 360 359 360 359 358 359 359 359 358 358 358 358 357 358 357 357 357 357 358 358 358 357 357 357 357 357 357 357 358 358 357 356 356 356 355 355 355 355 355 354 354 354 354 355 355 355
358 360 361 360 362 362 358 359 356 358 361 360 361 360 359 358 359 359 361 362 361 361 362 359 357 355 356 355 355 358 357 360 358 359 357 359 358 359 360 359 361 359 359 359 359 359 359 359 359 359 359 358 358 358 358 358 358 358 358 358 357 357 358 358 358 357 358 358 358 357 357 357 356 356 355 355 355 356 356 356 356 356 356 355 355
361 361 362 361 362 362 361 359 357 361 364 359 360 362 362 362 364 365 366 366 364 364 365 357 355 352 357 354 356 357 356 358 355 357 359 360 360 359 359 357 359 361 360 359 359 359 359 359 359 359 359 359 359 360 359 358 358 359 359 359 359 359 359 359 359 359 359 359 359 359 359 359 359 358 358 357 358 358 358 357 357 357 357 357 357
361 363 362 361 361 364 360 360 360 362 363 362 361 362 362 363 365 366 366 365 360 359 361 355 352 353 353 352 354 355 357 359 359 358 356 358 360 357 358 359 359 359 360 362 361 360 360 360 360 359 360 359 360 360 360 360 360 361 361 361 362 362 362 362 362 362 361 361 361 361 361 361 361 361 360 359 359 359 359 359 359 360 359 359 358
363 364 363 362 362 363 363 360 363 363 363 362 359 363 361 364 364 364 362 360 354 356 354 352 351 352 353 352 355 357 358 355 357 357 357 358 359 360 357 359 358 359 359 360 361 362 361 361 361 361 361 361 361 361 362 362 363 363 363 364 363 364 365 365 365 364 364 364 364 364 363 363 363 362 361 360 360 361 361 360 360 361 360 359 359
365 364 361 363 357 357 359 359 363 364 360 362 362 363 365 364 365 361 360 357 355 358 355 354 351 352 355 356 354 355 357 355 357 357 357 360 361 358 360 359 359 359 360 359 360 361 360 361 362 362 362 362 362 363 363 363 364 364 364 365 365 365 366 366 366 366 366 366 365 365 365 365 364 362 361 362 362 362 362 362 362 362 361 361 361
365 365 361 362 361 356 358 362 363 363 362 363 366 364 365 365 365 363 357 353 357 353 356 354 353 351 354 358 357 357 357 357 356 355 355 360 360 361 362 362 362 360 360 359 362 365 361 361 361 362 362 363 363 363 363 363 363 363 364 365 366 367 367 367 366 366 366 366 366 366 366 366 365 364 364 363 363 363 363 363 362 362 362 362 361
365 364 362 360 359 358 358 360 363 362 364 364 365 366 366 359 365 366 364 361 353 349 352 355 353 352 352 351 353 357 356 359 357 356 355 358 359 357 359 361 363 361 363 362 364 365 363 357 359 361 361 362 363 364 365 366 365 366 366 365 367 368 368 369 369 368 367 366 366 366 367 367 367 367 366 365 364 364 363 362 361 361 361 361 361
365 364 363 360 359 358 359 362 363 364 365 364 366 366 365 363 362 366 366 365 354 351 350 352 349 348 351 349 356 355 356 358 359 359 359 359 360 358 358 358 360 359 359 361 360 365 365 364 359 359 360 361 361 360 361 363 364 365 366 366 367 367 367 368 368 367 367 368 368 368 368 368 367 366 365 364 364 363 362 360 360 360 360 360 360
364 364 363 360 359 359 360 362 364 366 366 365 363 364 364 362 362 364 370 366 362 359 356 358 350 348 347 349 352 358 360 357 360 360 358 356 355 357 355 360 359 360 362 363 361 364 365 366 366 367 368 362 360 361 362 362 363 364 364 364 365 367 368 368 368 370 370 369 369 369 368 366 365 364 364 363 363 361 360 359 360 360 360 359 358
363 363 363 361 359 358 360 362 364 366 365 361 362 361 363 363 363 362 363 364 364 361 358 357 352 352 351 352 353 354 356 357 358 357 359 359 358 359 355 358 361 360 359 362 362 359 365 368 369 367 368 367 362 361 361 362 362 362 361 362 363 365 367 368 369 370 370 369 368 366 364 363 364 364 363 363 362 360 359 359 359 359 356 354 354
362 362 362 361 361 361 362 363 366 367 366 364 363 365 366 365 365 368 360 358 358 358 355 355 352 347 352 348 351 355 353 358 355 353 353 354 357 357 358 358 359 361 364 362 363 362 363 370 369 370 369 370 369 364 362 361 361 361 360 361 364 367 369 370 371 372 371 370 367 365 364 364 364 363 362 362 361 359 358 358 357 354 353 352 352
363 362 362 363 361 360 362 365 366 367 367 368 367 366 366 364 363 362 364 357 356 354 353 356 346 343 342 343 345 349 354 353 351 350 352 353 354 357 359 354 352 355 361 364 366 364 364 368 370 367 371 372 370 369 373 370 369 362 361 363 365 367 368 369 371 373 370 367 366 365 364 364 363 362 361 361 360 358 357 356 354 352 352 352 351
363 362 362 362 362 362 363 366 366 367 366 365 364 364 365 362 364 360 356 360 358 361 361 358 343 347 350 349 340 342 350 353 351 350 349 350 352 351 353 351 351 357 361 361 362 364 359 362 366 369 371 371 370 369 371 371 370 364 363 362 363 365 366 369 372 371 368 367 365 365 365 364 363 362 360 361 361 358 355 354 353 352 351 351 349
361 360 361 362 363 363 364 365 367 369 367 365 363 363 365 364 361 362 361 351 349 352 359 359 355 350 340 341 341 342 336 341 346 348 348 348 347 348 351 350 351 356 360 357 351 359 364 365 365 369 371 371 371 370 370 370 368 367 368 367 365 362 364 368 371 369 365 366 366 364 363 364 363 361 359 361 359 356 354 354 353 352 350 348 347
362 363 361 363 364 366 366 367 367 368 367 365 363 361 363 364 364 363 361 355 349 350 357 358 356 357 349 348 342 340 339 341 342 346 347 343 345 345 350 350 348 356 356 353 357 361 355 356 366 368 370 372 372 371 370 372 371 374 376 372 366 363 363 366 370 367 365 366 367 365 364 364 363 361 359 361 359 355 355 355 353 351 348 347 346
365 364 362 363 364 366 368 367 366 368 368 365 365 364 363 362 364 362 360 363 359 351 348 359 360 365 359 354 353 343 343 346 344 339 356 346 347 345 348 349 350 353 360 356 353 353 359 356 363 366 367 367 368 367 368 368 372 371 373 371 366 363 363 364 367 366 365 366 368 366 366 364 363 361 359 360 358 356 355 354 351 350 348 346 345
363 365 364 366 366 368 370 369 367 368 369 368 364 361 360 362 365 364 362 366 364 356 353 349 358 360 355 354 356 355 350 347 342 347 340 347 348 345 346 347 347 347 347 348 348 350 355 358 355 353 359 365 364 364 367 366 365 366 364 367 362 364 365 364 363 361 364 366 368 367 365 365 363 362 361 360 358 356 353 351 350 349 347 345 344
364 367 367 367 369 369 372 369 368 368 368 367 364 362 364 366 368 369 370 369 364 358 354 352 350 352 358 354 353 356 356 353 350 344 344 342 341 347 347 348 347 346 346 345 345 347 350 359 356 356 358 361 364 363 365 365 368 369 366 360 364 365 366 365 362 361 362 365 368 367 365 365 365 363 361 359 358 354 351 350 349 348 346 345 344
367 366 369 369 369 369 371 370 367 367 369 367 364 363 363 365 369 369 367 367 365 362 362 360 354 351 354 355 355 352 350 352 354 352 346 342 337 341 343 348 348 348 350 350 349 350 351 352 356 354 360 364 365 364 362 366 366 371 368 360 363 368 368 365 362 361 365 366 365 367 365 364 364 364 363 358 358 353 351 349 348 347 346 344 343
367 368 370 370 370 371 368 367 367 365 367 366 365 366 366 367 367 366 368 365 368 365 360 363 360 359 357 359 357 355 353 351 348 348 348 350 340 339 342 341 342 347 353 349 352 352 353 354 354 352 356 361 362 364 366 368 372 363 362 361 363 364 365 364 361 363 362 362 364 365 365 362 363 363 361 357 355 351 350 348 347 346 346 343 342
364 366 368 367 368 369 365 364 366 368 367 366 365 363 362 363 364 369 369 366 364 366 364 365 364 363 359 362 357 349 352 348 350 352 349 346 345 340 341 343 342 343 351 355 357 351 354 355 352 351 360 360 362 364 368 370 366 360 360 360 361 363 363 363 362 361 360 357 361 363 364 364 361 361 360 357 353 351 348 348 346 345 345 342 341
364 363 364 364 368 368 368 366 367 367 366 367 366 365 365 365 366 368 367 368 368 366 362 361 358 362 359 356 355 354 355 353 351 355 354 351 349 345 344 348 349 345 349 358 354 352 353 354 355 356 357 361 366 367 369 370 370 360 367 362 360 361 362 362 361 360 357 357 357 359 360 362 361 360 359 358 356 353 351 349 346 344 343 341 340
362 362 363 365 367 368 368 367 368 369 370 368 368 370 369 365 367 365 366 366 365 365 362 360 360 358 356 359 357 355 355 357 355 352 355 355 353 347 345 348 344 344 350 352 350 353 356 357 362 361 364 367 366 372 370 369 367 366 364 367 359 360 359 359 360 358 356 354 355 356 356 357 359 358 356 356 357 355 353 351 347 343 342 340 340
362 364 364 364 365 367 369 369 371 371 372 372 371 370 370 368 367 366 364 367 367 366 365 362 364 363 362 358 357 356 356 356 357 356 352 350 349 346 350 350 346 344 352 353 357 349 352 358 361 368 366 367 368 371 373 367 366 365 364 368 367 359 359 358 359 358 357 355 355 356 357 359 361 361 359 357 358 357 356 354 349 344 341 339 338
363 366 368 367 367 369 369 370 370 371 372 371 368 370 371 369 368 367 367 367 367 365 363 361 359 360 362 361 359 358 357 359 357 356 356 354 352 351 351 347 343 344 344 352 353 352 349 357 357 361 365 371 369 373 373 368 366 365 366 376 373 361 357 355 356 356 355 355 356 356 357 358 359 360 358 358 358 358 356 355 352 346 341 338 337
367 367 367 367 367 367 369 368 371 369 370 370 370 369 370 367 367 367 366 365 367 366 365 362 360 361 361 364 363 357 359 358 359 358 358 360 358 357 355 353 347 342 346 344 346 348 352 351 357 361 365 367 368 369 368 367 365 366 370 373 375 373 361 355 354 354 352 350 352 354 353 355 357 359 360 359 359 358 357 356 355 348 343 340 338
366 367 366 369 368 367 367 366 370 371 370 370 368 370 371 368 365 367 365 365 368 367 365 362 363 359 360 361 361 361 360 364 361 360 366 368 363 360 357 354 355 349 345 344 349 345 351 352 348 359 366 368 370 368 369 369 365 366 367 370 371 374 361 350 350 350 350 350 350 350 351 353 355 357 359 360 360 359 359 358 356 351 345 340 337
365 363 366 367 369 369 368 368 369 369 368 368 369 369 371 368 367 368 366 368 367 367 367 363 363 364 362 361 361 359 363 361 359 359 365 369 361 359 359 360 359 353 351 346 348 351 349 353 354 353 363 367 363 364 364 366 364 366 367 369 367 369 354 349 350 349 349 349 348 348 350 352 353 354 355 357 357 356 356 357 356 354 347 343 339
367 368 367 365 367 367 370 368 369 369 369 368 370 370 370 368 367 365 367 369 366 365 367 365 363 363 363 361 364 362 364 362 363 359 363 365 363 362 362 363 361 359 357 354 347 354 355 353 355 358 359 363 362 362 361 364 363 365 368 370 371 362 354 366 355 352 349 348 347 347 347 348 348 347 348 349 350 351 352 354 354 354 349 345 340
364 366 365 364 365 364 363 363 363 365 366 367 367 368 369 367 364 362 364 368 365 364 363 363 362 363 363 362 363 364 365 364 363 362 363 365 365 362 363 364 365 363 362 357 354 352 360 355 357 358 359 362 366 365 363 362 360 361 372 371 375 364 369 361 357 355 352 348 347 346 344 344 342 342 345 347 348 349 351 353 353 353 351 347 342
364 364 364 366 366 365 362 365 362 366 368 367 368 369 369 369 369 368 367 367 365 363 365 364 363 363 364 363 363 364 367 364 363 362 361 362 364 363 365 364 361 364 362 360 355 355 360 364 359 356 359 364 359 366 363 360 361 364 365 368 372 367 363 362 362 356 352 348 345 344 343 342 341 340 342 345 346 348 350 351 351 351 350 348 343
365 363 365 364 365 365 363 365 366 365 369 371 367 367 368 367 367 363 364 367 367 365 364 364 364 363 363 363 362 363 366 364 362 359 360 359 359 359 361 361 359 361 366 360 357 355 355 361 360 363 360 364 359 367 363 362 361 366 363 364 364 364 365 363 361 357 351 348 345 343 343 342 340 339 341 342 344 346 346 347 346 343 344 345 340
364 364 364 363 366 367 365 366 368 367 369 367 367 368 368 368 367 364 362 365 365 363 362 364 363 364 363 363 360 361 360 360 362 359 358 359 360 360 360 361 361 360 364 365 360 355 355 356 362 357 358 362 361 360 363 362 367 368 368 364 359 358 361 364 361 352 350 347 345 343 342 341 340 339 339 337 340 341 341 341 339 338 339 338 334
360 364 364 364 366 368 365 367 368 367 367 366 367 367 368 368 368 368 367 367 365 364 363 363 362 363 362 363 361 360 361 362 363 362 362 361 360 362 361 363 365 363 364 365 365 360 358 355 360 360 359 359 360 363 363 365 363 364 362 363 364 362 361 358 358 356 351 347 345 342 342 341 339 338 337 336 336 334 334 334 333 333 332 333 333
360 361 364 365 366 366 362 363 365 366 366 367 367 365 367 368 368 366 367 368 367 366 365 366 365 365 364 363 361 362 363 362 361 360 360 361 361 360 359 361 362 362 363 363 364 364 360 358 358 363 365 363 363 364 365 360 360 363 367 368 365 363 365 359 355 353 350 344 344 344 342 342 341 339 338 336 335 334 333 333 331 330 330 329 327
361 359 361 362 362 364 364 364 364 366 367 368 368 367 365 366 367 367 367 368 366 367 366 365 366 366 364 364 364 364 362 361 359 360 363 363 362 360 360 360 361 362 363 363 365 364 362 359 360 357 362 359 360 362 365 363 358 357 359 362 365 368 365 359 357 354 353 354 354 353 347 347 346 343 342 341 337 334 333 332 333 331 328 325 322
359 357 358 360 362 362 364 363 362 364 366 365 368 369 367 367 368 367 365 366 366 366 366 365 364 364 364 364 365 365 364 364 361 360 361 362 361 361 363 363 362 361 359 359 361 360 359 357 356 358 358 360 362 357 362 367 364 361 358 356 356 360 367 366 362 360 357 355 353 348 348 349 347 348 345 336 334 334 333 331 331 329 328 326 323
358 357 357 357 359 360 361 361 363 364 365 364 367 368 367 366 365 366 366 365 363 364 365 366 364 362 363 363 361 362 364 366 365 364 364 362 363 362 362 365 365 363 360 358 359 358 356 355 354 353 355 357 360 362 363 366 363 363 364 357 353 355 359 364 365 362 363 363 357 351 348 347 347 347 338 337 338 337 334 334 337 337 335 330 326
356 357 357 356 356 357 358 359 360 360 358 359 360 364 364 366 365 362 364 364 364 364 365 363 364 365 364 362 361 361 365 366 367 365 363 364 361 361 364 365 365 363 362 360 359 358 357 356 356 358 357 357 359 360 357 357 356 355 359 359 356 358 359 359 362 365 365 359 357 354 354 357 356 358 358 361 365 358 353 343 347 345 339 332 329
358 359 359 358 356 355 355 357 358 356 357 358 362 353 355 361 363 361 361 364 365 364 364 364 363 362 362 362 360 364 366 365 364 361 355 355 357 359 362 365 364 364 361 360 359 358 358 356 354 353 352 351 350 354 354 355 358 362 359 360 357 358 359 359 362 365 366 360 354 357 358 358 355 356 359 357 357 361 361 362 360 352 343 335 332
355 357 356 356 355 355 354 355 355 354 354 355 352 339 338 341 357 362 363 364 366 366 363 365 364 362 361 362 363 363 365 364 364 360 358 355 355 354 354 357 361 364 361 358 358 359 357 355 355 355 352 354 354 356 355 353 355 356 356 359 357 357 356 353 350 358 370 364 363 359 358 363 363 357 359 357 356 357 358 359 345 341 335 333 332
355 354 353 354 356 355 354 354 353 353 354 354 339 335 335 333 343 358 359 360 360 361 362 361 361 361 361 360 360 359 361 363 364 366 366 360 354 353 351 351 353 355 356 361 360 359 359 356 355 356 355 354 356 358 353 351 355 358 361 360 360 358 356 353 353 352 363 367 358 356 354 361 364 359 358 358 359 359 356 346 338 334 331 331 330
353 353 355 355 355 354 354 354 352 352 352 346 335 332 332 331 331 345 356 357 357 358 360 362 362 362 363 361 361 359 358 362 362 362 365 366 360 353 352 353 354 351 343 341 347 361 361 360 358 357 356 357 357 358 358 360 364 359 359 356 358 359 359 357 355 353 359 367 359 355 352 356 359 358 356 358 360 361 358 346 339 335 333 331 329
355 353 352 353 355 357 357 356 357 356 354 350 334 329 327 327 329 335 355 355 356 357 359 360 360 360 362 363 362 360 362 364 365 363 363 365 366 366 366 365 363 363 357 345 341 341 350 358 359 358 362 366 361 363 366 367 363 358 357 356 359 356 357 356 361 361 363 362 356 353 351 353 356 356 355 358 359 361 364 351 338 334 332 330 328
351 353 352 352 353 355 355 354 355 354 353 342 332 328 324 323 325 334 352 354 355 356 359 360 362 361 362 362 363 361 362 363 364 364 362 362 363 361 361 360 360 362 363 361 361 360 360 357 358 360 361 362 363 365 367 368 366 364 363 361 360 359 359 361 360 361 361 364 361 356 348 352 357 354 355 357 357 360 362 347 340 336 334 331 329
353 354 354 354 354 355 357 356 355 354 355 334 332 328 324 322 325 343 352 355 355 355 357 359 360 363 363 363 363 362 363 363 361 352 356 360 359 358 358 359 360 360 360 361 347 349 359 359 360 360 359 358 347 363 364 359 360 363 365 364 363 361 358 355 353 355 354 358 361 355 352 352 358 353 355 358 359 359 361 362 346 340 337 333 331
353 354 354 354 356 355 355 357 356 357 358 339 326 324 325 322 331 353 355 355 356 356 356 358 360 361 361 362 363 360 359 361 356 337 339 353 357 356 357 357 357 357 357 359 344 334 334 332 331 333 332 332 332 330 328 329 344 351 356 354 353 356 354 351 351 350 352 356 357 358 353 350 356 356 354 357 359 357 358 360 363 343 336 335 332
350 350 351 352 352 353 354 355 355 355 357 347 328 324 321 321 336 353 356 355 355 356 356 358 358 359 359 356 357 358 358 360 341 334 334 350 356 357 356 355 355 355 356 357 357 355 331 327 327 327 328 330 330 329 329 328 328 336 351 348 353 354 353 353 348 350 352 356 357 359 355 351 356 358 354 357 358 358 359 363 364 359 341 335 329
345 349 348 349 350 351 351 352 354 354 355 346 326 321 318 319 335 355 354 355 354 354 354 355 356 355 356 354 353 353 354 351 327 326 330 347 353 355 356 355 353 354 356 358 357 357 359 359 361 358 354 343 345 350 353 336 334 341 350 353 355 353 351 351 350 351 349 351 359 364 353 353 353 355 355 351 349 355 360 362 362 363 364 364 363
Wind_Speed
6 6 5 6 6 5 4 4 4 4 4 4 4 4 3 3 3 2 2 2 2 2 2 1 1 1 1 1 1 1 1 0 0 0 1 1 2 1 3 4 5 5 4 4 5 5 5 5 6 6 6 6 7 7 8 8 8 8 8 8 9 9 9 9 10 10 10 10 10 10 11 11 11 11 11 11 11 11 12 12 12 12 13 13 13
6 5 5 6 5 4 4 4 4 3 3 4 3 3 3 2 2 2 3 2 3 2 2 2 1 1 0 1 1 1 1 0 0 1 1 1 2 2 5 5 5 5 5 5 6 7 7 7 6 6 7 7 7 7 7 8 7 8 8 9 9 9 9 10 10 10 10 10 10 11 11 11 11 11 11 12 12 12 12 13 13 13 13 14 14
5 4 4 4 4 4 4 4 4 4 3 3 2 2 2 2 2 3 2 2 2 2 2 1 1 1 0 1 1 0 0 0 0 1 1 1 2 2 3 6 6 5 5 6 7 7 7 7 8 8 8 8 8 8 9 9 9 9 9 9 10 10 10 10 10 11 10 10 10 11 11 11 11 11 11 12 12 12 13 14 14 14 14 14 15
4 4 4 4 3 4 3 4 4 3 2 3 2 2 2 2 2 2 3 2 1 1 1 1 1 2 1 1 1 1 0 0 1 0 1 1 2 2 2 3 6 5 5 7 7 7 7 7 7 8 8 8 9 9 9 9 10 10 10 10 10 10 11 11 10 11 11 10 10 11 11 11 11 11 11 12 12 13 14 14 14 14 15 15 16
3 3 3 3 4 3 3 4 3 3 2 3 3 2 2 2 2 2 1 1 1 2 0 0 1 2 2 1 1 0 1 2 2 2 2 1 2 2 2 2 3 5 7 7 7 8 8 8 8 8 8 8 9 9 10 10 10 11 11 11 11 11 12 11 11 11 11 11 11 11 11 11 11 11 12 12 12 14 14 15 15 15 16 17 17
3 2 2 3 3 3 3 3 3 2 2 2 1 1 2 2 2 2 2 2 3 3 2 2 2 1 1 2 1 1 1 2 2 1 2 2 1 2 2 2 2 3 3 7 8 8 8 8 8 9 9 9 9 10 10 11 11 11 11 11 11 12 12 12 12 11 11 11 11 11 11 11 11 11 12 12 13 13 14 15 16 16 16 16 17
2 2 2 2 2 3 2 3 2 2 2 1 1 1 1 2 2 2 3 2 3 2 2 3 3 2 2 2 2 1 1 2 2 2 2 2 2 2 2 2 2 3 3 3 6 10 10 10 9 9 9 10 10 11 11 11 11 11 11 11 12 12 12 12 12 11 11 11 11 11 11 11 11 11 11 12 12 13 14 14 15 15 15 15 15
2 2 2 2 2 2 2 2 2 1 1 1 1 1 2 2 2 2 3 3 2 2 1 2 3 3 2 1 1 1 2 2 2 3 2 2 2 2 3 3 3 2 3 3 3 3 8 9 9 9 10 10 11 11 11 11 11 11 11 11 11 12 12 12 11 11 10 10 10 10 10 10 10 10 11 12 11 10 10 11 12 13 14 13 12
3 2 1 2 2 2 2 2 1 1 0 0 1 2 2 2 2 2 2 1 2 3 2 2 2 2 2 2 2 1 2 1 2 2 2 3 3 3 3 3 3 4 4 3 3 3 6 9 8 9 9 10 10 10 11 11 11 11 11 11 12 12 12 11 11 10 10 10 10 10 10 10 9 8 10 10 10 10 11 11 11 10 11 12 12
2 2 1 1 2 2 2 1 1 0 0 1 1 2 2 2 3 1 1 1 2 2 3 3 2 2 2 3 2 1 1 2 2 2 2 3 3 3 3 2 3 3 3 3 3 3 2 5 9 9 10 10 9 9 9 10 10 10 11 11 11 12 12 11 10 10 10 9 8 8 8 9 9 8 8 9 10 10 10 8 9 10 11 12 12
3 2 2 2 2 2 1 1 0 0 0 0 1 3 2 2 3 2 1 1 2 2 3 2 2 2 3 3 2 1 2 1 2 2 3 3 2 2 2 3 3 3 3 3 3 3 3 3 2 3 3 7 8 9 8 9 9 10 10 10 11 11 11 11 10 9 9 9 8 8 8 8 8 8 9 9 9 8 8 8 9 10 11 12 12
3 3 2 2 2 2 2 1 1 0 0 1 2 2 3 3 3 3 2 2 2 2 2 1 1 2 2 2 2 2 3 2 3 3 3 3 2 2 2 1 2 2 3 3 3 3 2 3 3 3 3 4 6 7 8 8 8 9 9 9 9 10 10 10 9 9 8 8 8 8 7 8 8 8 8 8 7 7 8 8 9 9 11 12 12
3 3 2 2 1 2 1 1 1 1 1 1 2 3 2 2 2 1 3 3 3 2 2 2 3 2 2 2 1 1 3 3 4 3 3 2 2 2 2 2 2 2 2 2 3 3 2 3 3 3 3 3 3 4 5 6 7 6 7 8 9 10 10 10 9 8 8 7 7 6 6 6 7 8 8 7 6 7 7 8 8 9 10 11 12
4 3 3 2 2 2 2 2 1 1 1 1 2 1 2 2 2 1 2 4 3 4 4 3 2 4 3 2 2 1 0 1 2 2 2 2 2 2 2 3 2 1 1 1 3 3 3 2 2 2 3 3 3 4 3 3 3 3 6 8 9 9 9 9 8 7 7 7 6 6 6 6 7 7 7 7 6 6 7 7 8 9 10 11 12
4 4 3 3 2 2 3 2 1 0 0 0 1 2 1 2 3 3 2 2 2 2 3 4 3 3 1 1 4 1 2 2 2 2 2 0 1 2 1 2 1 0 1 2 1 2 2 2 2 2 2 3 3 3 3 4 4 6 7 6 6 7 8 8 6 6 6 6 6 6 5 6 6 6 6 6 5 5 6 7 8 10 11 11 12
4 4 3 3 3 3 2 1 1 0 1 1 1 1 1 1 2 3 3 2 2 3 3 3 3 3 2 3 3 2 4 5 5 4 3 3 1 0 1 1 0 1 1 2 1 1 2 2 2 2 2 2 3 3 3 3 5 6 5 4 5 7 7 7 6 5 5 5 5 5 5 5 5 5 5 5 5 5 5 7 9 10 11 11 12
3 3 3 4 3 3 2 1 0 0 0 1 1 1 1 2 2 2 3 3 3 3 3 3 3 2 2 1 1 2 5 4 4 3 4 4 4 1 1 1 1 1 2 1 1 2 3 2 2 2 2 3 3 3 3 3 4 4 5 3 5 8 8 5 5 5 4 4 3 3 4 4 4 4 4 4 3 4 5 7 8 10 11 11 12
3 3 4 3 4 3 2 2 2 1 1 1 1 0 0 1 2 2 2 2 3 3 2 2 3 2 1 1 3 4 3 4 4 3 2 4 4 4 2 1 0 1 1 2 2 2 1 3 2 2 2 2 2 3 3 3 3 3 3 6 8 8 7 6 4 4 4 4 3 3 3 3 3 3 3 3 2 3 5 6 8 9 11 12 12
3 3 3 3 3 3 2 2 2 1 1 1 1 1 0 1 2 2 2 1 2 2 2 2 1 1 2 2 1 1 1 4 4 3 3 3 4 4 4 3 1 1 1 1 1 2 2 2 4 4 2 2 2 3 3 3 4 3 5 7 7 7 7 6 4 4 3 3 3 2 3 3 2 2 3 2 2 2 3 5 7 8 10 12 12
3 3 4 4 3 3 3 3 2 2 2 2 2 1 0 1 1 1 1 0 1 2 2 2 1 2 3 2 3 2 2 2 3 3 2 3 4 3 4 5 2 3 2 3 2 3 3 3 3 2 2 2 2 2 3 3 3 4 3 5 6 6 6 6 5 5 4 3 3 2 2 3 3 2 2 2 1 2 2 4 6 8 9 11 12
4 4 4 4 4 4 3 3 3 3 3 3 2 1 1 0 0 1 1 1 0 1 1 1 2 2 2 2 2 2 1 2 1 1 3 4 4 5 5 4 3 4 4 3 3 3 3 3 3 4 2 2 2 2 3 3 2 3 4 3 6 6 6 6 6 6 5 3 3 3 2 2 2 3 3 2 1 1 2 3 5 6 8 10 11
5 5 4 5 5 4 5 5 4 4 3 2 1 2 2 1 1 1 1 1 0 0 1 1 1 2 2 1 2 1 1 1 2 3 2 2 3 4 4 5 4 4 4 5 5 4 4 3 3 2 2 2 2 2 2 2 2 2 2 4 6 6 7 7 7 7 7 6 4 4 4 2 1 2 2 2 1 1 1 2 3 5 6 9 10
5 5 5 5 5 5 5 4 4 3 3 2 2 2 2 2 1 2 2 1 1 1 0 1 0 1 1 1 1 1 2 2 3 4 4 2 3 3 4 5 5 4 5 6 4 5 4 3 4 4 3 3 2 2 3 2 3 2 5 8 7 6 6 7 8 8 8 8 7 6 5 4 2 2 2 2 1 0 1 1 2 3 5 7 9
5 5 5 6 4 4 4 4 3 3 3 3 3 3 2 1 1 1 2 2 1 2 2 1 2 1 2 0 1 1 0 2 2 1 2 3 3 3 3 4 1 3 3 5 3 4 5 5 5 4 3 3 3 3 3 3 1 1 6 4 5 6 6 7 8 9 9 9 8 7 6 5 4 2 3 3 3 2 1 1 1 2 3 5 7
6 6 6 6 5 5 4 3 3 3 3 3 3 3 2 1 1 2 1 2 2 2 2 2 2 2 2 1 2 1 1 1 1 2 2 1 1 2 3 3 3 2 4 4 4 2 4 5 5 4 4 3 2 2 2 2 3 3 4 5 5 6 6 7 8 9 10 10 9 9 8 7 6 5 4 5 5 3 3 3 1 0 1 3 6
6 6 5 6 6 5 5 5 4 4 4 4 4 3 2 2 2 2 3 2 2 3 3 3 2 3 2 2 2 1 1 1 0 1 1 1 1 2 2 2 2 2 1 2 3 3 2 4 3 3 4 4 4 3 2 3 2 3 5 6 4 3 5 7 8 9 9 10 10 9 9 9 7 6 5 4 5 5 4 5 4 2 0 1 3
6 6 6 5 6 5 5 5 5 5 4 4 3 3 2 2 2 2 2 2 3 3 3 3 3 3 3 3 2 3 1 1 1 1 1 2 2 2 2 4 3 3 2 0 1 1 3 2 1 3 4 4 4 3 4 4 3 3 6 3 5 4 6 6 7 8 9 10 10 10 10 10 9 7 7 6 6 6 5 5 6 4 3 1 1
6 6 6 6 6 6 6 6 5 5 5 4 4 3 3 3 2 3 4 3 3 4 3 3 4 4 3 3 3 3 2 2 1 1 1 1 1 1 1 1 3 4 4 3 3 2 1 3 1 1 3 5 4 3 4 5 3 5 6 4 3 4 2 5 7 8 9 9 10 10 10 10 9 8 8 8 7 7 7 6 6 7 5 4 3
6 6 6 6 6 6 6 5 5 5 4 4 4 3 3 3 3 3 3 3 3 3 3 3 3 3 3 3 3 2 2 1 2 1 0 1 1 1 1 2 1 3 4 4 3 4 2 3 5 1 4 5 5 4 3 4 3 4 5 5 5 4 4 7 7 7 8 8 9 9 9 9 10 9 8 8 8 7 8 7 6 7 7 7 5
6 5 6 7 6 6 5 5 4 4 4 4 4 4 4 3 3 3 2 2 2 2 3 3 3 3 3 4 3 3 2 3 3 2 1 2 2 2 2 1 2 3 2 4 4 3 4 3 4 3 3 6 4 4 3 4 2 5 5 5 5 5 7 9 7 7 7 7 8 9 9 9 9 9 8 8 9 8 7 8 7 8 9 8 7
5 5 6 6 6 5 5 5 4 4 4 4 4 4 4 4 3 4 3 3 3 3 3 3 3 3 4 4 3 4 3 4 3 3 2 3 3 2 2 2 3 3 3 2 4 1 2 4 4 4 5 5 5 5 5 4 1 3 5 5 5 6 8 5 5 5 6 7 8 8 9 9 9 9 8 8 8 8 7 8 8 8 9 9 8
6 6 6 6 6 6 6 5 5 4 4 4 4 4 4 4 4 4 3 3 4 4 4 3 3 3 4 5 4 4 4 4 4 3 3 3 3 4 3 3 3 3 3 4 5 5 3 5 5 5 5 4 5 6 5 5 2 6 4 5 5 6 5 5 3 3 5 6 7 8 9 9 9 9 9 9 8 8 7 8 8 9 9 9 9
6 6 6 6 6 6 6 5 5 4 4 4 4 4 4 4 4 4 3 4 4 4 4 4 4 4 4 5 5 5 4 5 4 4 4 4 4 4 4 4 4 3 4 4 6 6 5 3 4 5 5 6 5 4 6 6 6 5 6 5 6 5 5 5 5 2 2 5 7 8 9 9 10 10 9 9 9 8 8 8 8 8 8 8 9
6 6 7 6 6 6 6 6 5 5 5 5 5 4 5 5 5 4 4 5 5 5 4 5 4 4 4 5 6 6 5 6 6 6 5 5 5 5 4 5 5 4 3 5 5 6 7 5 4 4 5 3 6 5 5 7 7 7 7 7 5 5 5 5 5 4 1 6 7 8 9 9 10 9 10 10 9 9 9 9 8 9 8 9 9
5 6 6 6 5 6 6 5 5 5 5 5 5 5 5 6 6 6 5 5 5 5 5 5 5 4 4 5 6 6 4 5 5 6 6 6 6 6 6 5 5 5 4 4 5 7 8 7 5 6 5 4 5 7 7 6 6 6 6 7 7 6 5 5 5 5 1 5 7 9 9 10 10 9 9 9 9 10 9 9 9 9 9 9 10
6 5 5 5 5 5 5 5 5 5 5 5 5 5 6 6 6 6 6 6 5 6 6 6 5 4 5 5 5 5 5 5 5 5 5 5 6 5 6 6 5 6 5 4 4 5 6 7 6 5 6 6 6 6 6 6 7 5 6 6 7 6 6 5 5 6 3 4 8 9 9 9 9 9 9 9 9 10 9 9 8 8 9 9 9
6 6 5 5 5 5 5 6 5 5 6 5 6 6 6 6 6 6 6 6 6 6 6 6 5 5 5 6 6 5 5 6 6 6 5 5 5 6 6 6 6 6 5 5 5 5 6 7 7 5 4 5 5 6 5 6 6 5 5 6 6 6 6 6 6 5 5 8 9 8 8 8 8 7 7 8 9 9 10 9 8 8 9 9 10
7 7 6 6 6 6 6 6 6 5 5 5 6 6 7 6 6 6 6 6 6 6 7 7 7 6 6 6 6 6 5 6 6 6 5 6 5 6 6 6 6 6 6 6 5 5 6 7 7 7 5 6 6 5 5 4 6 7 7 6 6 4 4 7 8 7 7 6 6 6 4 5 3 4 8 8 9 10 10 10 9 8 9 10 11
7 7 7 7 6 6 6 6 6 6 6 6 6 6 6 6 6 6 7 7 7 6 7 8 8 7 7 7 6 6 6 6 7 6 6 6 5 7 6 6 6 6 6 6 6 6 7 8 7 7 7 6 5 6 4 3 5 5 5 7 8 5 4 5 7 8 8 8 7 7 7 7 9 8 7 9 10 11 11 10 10 10 9 10 11
8 8 7 7 7 7 6 6 6 6 6 6 6 6 6 6 6 7 7 7 8 8 8 8 8 8 8 8 8 7 7 6 7 7 7 6 6 7 6 5 5 6 7 7 7 7 7 8 8 8 7 7 6 6 5 4 5 3 3 4 7 8 8 6 6 7 7 6 7 8 4 7 7 8 11 11 11 11 11 10 11 10 10 10 10
7 8 8 8 7 7 7 6 6 6 6 6 6 5 6 7 7 7 8 8 8 8 8 9 8 8 8 8 8 8 7 7 8 8 8 6 6 7 6 6 6 6 6 7 7 7 7 7 7 6 6 6 6 6 6 5 6 7 5 4 6 7 7 7 7 7 5 5 6 6 7 8 8 8 8 8 7 7 7 9 9 11 11 10 9
6 5 5 6 7 7 7 7 7 7 6 6 6 8 7 6 6 6 6 7 8 8 8 8 9 9 9 9 8 8 8 9 10 11 11 12 11 10 8 6 7 7 7 7 7 7 6 7 7 7 7 8 8 7 7 8 7 5 5 5 6 7 7 7 7 5 4 5 6 6 7 8 8 8 8 8 8 6 7 6 6 7 7 6 7
5 4 6 7 8 7 8 7 8 7 7 6 8 10 11 11 9 8 7 7 7 8 8 8 8 9 9 9 9 8 9 10 11 12 12 12 12 13 13 13 11 9 8 9 8 8 8 8 7 7 8 8 9 8 8 9 8 7 6 5 6 6 6 7 9 7 3 3 4 6 8 7 6 7 7 8 8 8 8 7 7 8 9 9 8
4 5 6 6 6 6 6 7 7 7 7 4 8 9 10 11 9 8 8 8 7 7 8 8 8 8 8 9 8 7 7 8 8 7 10 12 13 13 13 13 13 13 12 10 9 9 9 9 9 9 9 9 9 8 9 9 8 7 7 7 6 6 7 7 7 8 4 3 7 8 10 8 5 6 8 7 6 7 8 8 11 11 10 10 9
5 5 5 6 6 6 6 6 6 6 6 5 9 9 10 10 11 9 9 9 9 9 8 8 8 8 7 7 8 7 8 8 8 8 8 8 11 13 13 12 11 12 13 14 13 12 10 10 10 11 10 9 10 9 9 9 6 8 8 8 7 7 6 7 8 8 7 3 6 8 10 9 7 8 8 6 7 7 8 7 8 9 10 10 9
6 6 7 7 6 5 5 5 5 6 7 5 9 9 10 11 11 9 9 10 10 10 9 9 8 8 8 8 7 8 8 8 7 8 8 8 7 6 7 7 9 11 13 15 15 16 14 11 11 11 11 9 9 10 10 8 8 9 8 9 9 9 9 9 8 9 9 6 7 8 10 9 7 7 9 8 7 7 6 6 8 10 11 11 9
7 6 5 5 6 7 8 7 7 7 7 6 8 9 9 10 9 8 8 8 8 9 9 9 9 9 9 8 8 9 8 8 7 6 6 6 6 7 8 9 9 9 9 9 9 8 8 9 11 12 12 12 12 12 10 9 9 9 8 10 10 9 10 10 9 9 10 7 8 5 8 9 7 8 9 9 8 7 7 6 8 9 10 10 8
5 4 4 5 6 6 5 5 6 7 5 6 5 5 6 6 5 5 6 7 8 8 9 9 9 8 8 8 7 8 8 8 9 3 4 6 8 9 9 9 9 9 9 9 11 11 11 10 9 10 11 11 11 11 10 10 10 9 7 7 6 7 8 8 8 7 8 6 7 6 8 9 7 8 9 8 8 8 7 7 4 9 9 9 7
5 4 3 3 2 4 4 5 6 5 4 4 2 2 1 3 4 4 5 5 6 7 8 8 7 7 7 7 7 7 8 8 3 5 6 6 7 9 9 10 9 9 9 9 11 15 15 15 16 17 17 17 16 16 16 16 11 8 7 8 10 8 8 9 9 8 8 8 6 7 7 10 7 7 9 8 8 9 9 8 6 6 9 7 6
5 4 4 3 3 1 3 5 4 4 5 5 2 1 0 2 2 3 4 4 5 5 5 5 5 5 5 7 7 7 8 7 5 5 5 6 7 8 9 10 10 10 10 9 6 6 15 16 16 17 17 17 16 17 16 16 15 7 7 10 10 7 9 8 9 9 10 9 9 6 6 8 9 7 9 8 8 8 7 6 5 4 6 8 11
5 4 4 4 4 4 4 3 3 3 4 3 6 7 5 2 2 3 3 3 4 4 4 3 3 3 3 3 5 5 5 6 7 4 3 6 7 7 8 8 9 10 9 9 8 9 7 7 7 8 9 11 11 9 10 16 16 10 10 11 9 8 9 9 9 9 11 9 7 6 6 9 10 9 9 10 11 9 8 7 6 6 6 6 5
Wind_Direction
99 99 98 94 96 102 107 101 97 97 103 94 87 98 94 88 79 65 59 21 14 27 13 34 28 117 33 91 144 144 155 95 77 173 244 244 234 183 243 248 263 281 292 304 302 301 290 278 282 291 300 305 308 308 310 315 312 313 313 313 312 318 324 321 322 320 322 319 316 315 314 313 313 311 309 307 305 300 296 293 293 291 287 287 285
107 106 108 103 99 97 95 94 91 83 88 85 72 70 73 68 54 27 2 341 334 351 316 2 25 41 281 357 41 61 102 155 174 236 217 224 233 225 215 255 249 261 276 287 291 293 300 302 302 302 306 305 299 301 301 301 304 305 306 308 314 319 317 318 317 319 317 315 315 315 315 313 312 311 309 304 302 300 297 295 292 291 289 286 285
101 106 102 100 100 98 93 97 93 81 72 87 71 61 48 21 2 346 345 335 329 339 302 332 21 337 3 288 35 9 47 69 269 199 213 203 228 237 207 227 257 257 261 268 273 281 286 298 302 305 305 307 310 310 309 311 311 312 311 314 316 317 317 313 314 314 314 313 313 312 312 311 310 309 308 306 304 301 299 297 293 292 289 284 280
95 99 95 95 91 89 91 86 81 74 56 55 52 35 11 5 350 328 316 306 312 306 287 328 45 32 346 279 302 281 202 233 266 3 284 219 225 227 238 222 218 252 269 267 266 267 278 281 285 289 294 297 300 301 301 302 304 304 307 309 309 309 308 309 308 309 310 309 308 306 306 306 304 303 303 304 301 300 298 294 293 289 286 286 284
102 90 92 85 90 88 88 80 76 69 59 41 34 15 4 359 353 316 311 294 0 39 341 10 38 35 346 50 354 255 249 236 263 254 253 230 206 229 239 232 240 218 237 261 267 272 273 275 282 288 291 292 293 294 294 294 294 299 301 300 300 300 300 302 303 302 302 302 300 301 300 298 297 295 302 304 300 299 297 294 290 288 288 288 287
116 98 78 86 88 80 77 83 76 68 68 51 48 24 8 345 0 346 27 9 36 28 21 25 33 348 340 13 308 319 256 257 255 270 257 258 255 234 232 228 227 244 239 225 245 258 266 272 274 276 281 284 286 286 287 289 289 291 293 293 293 294 296 296 297 296 295 295 295 295 294 295 296 306 306 306 303 300 299 301 299 298 296 293 291
125 110 95 88 104 105 95 85 71 69 80 71 10 14 347 0 9 10 30 36 27 28 18 28 14 7 343 326 327 328 270 285 281 278 253 262 248 244 238 243 232 235 238 251 221 229 245 257 263 270 273 275 277 279 281 282 285 286 288 291 293 293 295 295 294 293 291 291 292 293 294 293 306 314 314 307 309 310 312 311 308 307 307 304 305
132 124 104 98 99 112 96 86 77 86 75 70 295 14 21 17 27 10 24 27 19 39 36 16 1 359 13 300 305 282 269 284 274 271 287 263 255 241 234 236 233 238 238 254 260 234 225 243 255 262 267 271 274 276 279 282 284 286 288 290 292 293 292 292 290 289 290 290 291 293 297 304 312 311 313 319 323 322 323 321 319 323 322 320 322
144 134 117 116 111 113 114 96 79 72 70 48 16 32 6 38 40 26 6 351 18 27 42 21 359 356 19 4 12 319 306 297 283 285 274 261 251 246 235 232 231 224 235 237 246 256 205 227 247 253 262 268 273 276 279 282 285 288 290 293 293 293 292 290 290 290 290 289 293 298 301 307 316 319 327 335 337 335 332 336 337 332 331 331 335
143 135 110 99 108 106 104 96 100 59 353 15 26 28 30 12 31 14 342 320 37 23 23 24 9 19 22 25 22 309 301 257 259 258 252 249 241 250 250 259 241 244 255 269 272 249 268 204 220 245 252 257 262 270 277 283 288 294 296 297 298 298 301 302 301 301 298 297 306 315 318 332 339 346 344 346 346 344 348 353 343 337 334 333 336
149 148 146 142 135 127 142 127 168 147 20 357 59 36 23 19 9 33 325 2 15 17 10 348 9 1 28 18 2 289 275 263 241 240 246 253 260 245 236 232 242 231 240 247 247 251 254 282 276 276 248 217 255 268 277 290 297 300 303 305 305 307 309 309 312 314 321 334 343 347 352 356 355 356 359 1 357 358 356 351 346 337 334 334 337
158 151 156 149 146 148 149 170 182 189 81 66 49 46 26 20 22 11 37 90 61 8 7 332 353 353 351 327 311 290 267 266 254 250 243 245 240 251 263 218 228 248 238 242 256 272 258 261 261 266 283 253 241 270 283 288 293 296 301 307 311 314 316 318 319 332 349 0 8 11 9 7 7 11 11 7 9 2 352 348 344 340 339 337 339
158 161 159 151 152 141 158 189 190 143 118 61 54 49 40 2 1 336 23 49 53 43 44 348 13 52 350 350 327 266 269 256 268 267 255 254 239 243 248 262 252 242 247 252 260 265 259 247 258 267 278 302 282 239 254 272 275 285 302 311 318 319 321 326 336 346 0 12 23 19 15 10 16 18 16 12 16 2 350 346 344 341 338 338 340
157 163 162 172 160 167 180 187 193 136 101 72 65 76 51 17 358 51 45 35 51 20 31 305 56 21 11 32 49 95 53 272 294 292 270 236 235 232 242 270 285 300 245 252 250 248 250 250 257 283 291 294 304 315 313 295 290 314 314 314 319 323 324 332 339 355 15 25 27 25 22 22 24 24 21 9 17 3 350 346 341 339 337 336 340
161 165 168 188 178 175 189 181 186 123 13 37 52 73 62 34 18 23 32 69 63 48 23 349 30 13 353 313 40 28 114 61 29 31 2 318 225 232 245 262 272 282 274 261 263 280 288 282 282 281 290 290 301 306 302 302 306 311 305 307 308 320 326 329 336 1 18 23 27 25 28 26 27 29 21 6 13 6 354 342 336 333 336 336 342
171 172 176 182 185 195 193 190 166 165 332 339 355 87 81 54 22 33 7 12 50 57 39 27 351 341 32 17 27 348 57 32 0 30 21 69 53 132 183 226 172 190 229 260 326 304 271 257 259 264 274 283 292 296 294 309 308 288 290 300 319 330 326 328 339 357 22 22 20 24 28 28 31 33 22 11 14 10 352 336 332 332 333 338 344
172 181 186 179 186 199 208 199 187 121 335 305 322 30 33 35 36 30 26 11 29 37 54 28 40 359 359 298 140 82 30 24 348 55 16 57 50 59 103 253 170 151 262 306 317 266 290 291 268 264 262 269 272 282 296 307 318 326 320 317 348 337 331 322 331 342 7 21 19 20 28 28 34 37 21 15 26 5 347 332 329 329 333 339 346
176 185 189 186 187 198 210 210 187 173 224 326 13 8 14 337 40 12 41 38 11 17 59 72 39 29 337 351 357 17 351 348 327 46 3 39 52 70 72 65 136 192 238 263 264 281 245 289 259 268 260 277 290 292 304 306 311 315 327 333 333 330 325 317 311 318 344 10 22 19 20 29 33 29 25 18 24 5 345 335 327 329 332 340 350
179 187 188 192 199 198 206 219 198 186 189 213 223 267 16 20 15 33 27 30 351 31 27 64 81 28 40 29 27 341 354 348 17 332 50 50 38 47 59 60 33 229 248 287 287 285 288 291 295 310 310 294 303 308 301 309 308 288 282 289 311 316 315 307 302 292 316 349 8 17 16 17 20 18 21 31 32 8 349 341 330 330 334 340 351
192 181 197 194 202 202 203 206 207 199 198 216 250 287 8 27 24 8 1 328 4 11 17 33 357 45 21 10 50 60 45 15 12 5 344 2 40 48 56 48 59 53 19 354 346 341 324 290 289 290 306 309 305 315 308 309 312 309 318 317 314 312 304 300 296 291 288 323 340 340 1 12 3 5 12 31 50 13 1 344 337 334 337 340 350
208 198 193 201 200 206 201 205 206 206 216 218 219 188 213 168 179 209 224 197 337 47 0 35 335 33 13 31 32 68 84 41 48 346 6 1 42 32 16 35 62 52 33 358 349 328 313 313 322 308 314 325 323 310 305 304 311 301 300 330 315 302 302 295 296 291 278 290 318 307 324 359 354 350 351 23 35 34 2 355 344 338 339 340 346
203 212 203 202 203 201 206 208 209 208 222 227 210 189 192 204 220 231 219 226 87 277 22 41 13 15 31 18 32 47 321 31 16 19 55 0 2 10 23 11 26 32 20 8 355 5 357 347 321 332 0 343 326 296 293 279 283 296 333 322 301 298 293 291 290 289 290 293 297 294 299 323 338 335 342 355 29 38 355 358 352 341 341 340 343
214 209 219 216 212 211 218 213 221 198 217 208 216 222 193 192 165 159 184 204 213 232 202 160 41 345 15 31 3 10 27 9 18 7 359 9 352 9 23 20 7 14 19 359 350 15 20 14 359 4 1 339 335 308 290 306 281 319 305 285 282 281 283 285 286 287 289 291 291 293 289 292 303 310 309 316 313 258 313 344 356 349 345 342 341
222 222 220 221 217 222 226 228 221 220 214 215 219 219 215 183 166 166 171 180 217 250 281 264 249 217 288 304 300 312 67 319 9 10 346 5 343 352 20 349 342 23 12 352 17 30 24 26 21 16 8 2 345 333 307 295 308 273 292 304 274 273 280 284 287 288 287 288 289 290 289 281 277 284 286 279 279 246 238 278 340 353 347 346 340
219 220 218 219 216 222 223 223 224 228 232 222 212 215 211 208 164 202 189 206 220 245 258 261 262 272 265 278 289 302 333 337 320 345 35 21 302 333 21 9 331 10 13 6 6 20 34 33 31 26 30 10 16 346 333 324 351 43 305 286 244 274 283 291 293 291 289 287 288 287 284 280 250 256 243 246 248 242 236 233 232 311 345 352 345
215 216 219 213 216 215 212 220 225 226 222 221 217 204 200 206 200 213 215 204 232 236 257 259 256 246 252 253 259 264 279 279 291 268 292 258 318 352 351 328 313 359 6 1 352 322 63 37 37 46 37 23 22 8 354 344 344 72 308 295 300 293 307 302 295 291 289 288 288 286 282 279 256 250 255 243 248 256 238 221 219 204 221 359 333
217 215 213 215 219 216 213 219 214 216 214 215 215 206 200 203 206 228 240 202 221 236 251 255 250 237 238 243 263 263 292 254 270 295 319 331 343 359 341 338 324 313 335 13 325 334 351 349 356 53 37 16 2 1 353 347 24 15 316 301 342 346 312 302 294 290 288 288 288 288 285 281 276 258 261 247 238 249 249 229 216 198 183 184 294
209 211 208 212 215 216 213 218 214 213 212 215 221 224 210 216 208 210 224 201 214 224 247 257 255 250 257 257 259 268 261 276 286 277 289 325 330 339 264 312 340 323 330 310 324 328 352 328 308 240 352 356 343 336 329 302 344 339 274 330 334 327 343 311 299 291 288 288 288 289 286 284 280 272 260 258 248 245 246 245 222 193 183 173 188
204 204 206 203 208 213 219 223 209 216 213 213 218 216 215 220 220 219 234 218 214 238 255 258 270 267 254 246 261 268 263 264 266 258 312 286 249 219 273 311 323 311 319 318 325 330 326 334 325 19 340 334 327 331 325 322 16 331 337 328 331 314 13 323 302 294 290 289 292 293 294 292 290 281 270 255 253 243 239 236 231 200 192 183 185
209 201 201 199 199 202 214 218 225 223 227 224 216 212 206 226 224 232 234 232 224 232 241 264 267 264 271 266 255 256 247 251 247 264 249 246 228 214 223 232 228 281 304 301 315 302 314 314 301 323 340 326 321 316 322 316 78 293 335 327 329 345 335 299 292 292 295 298 298 296 294 293 291 288 282 272 266 260 247 239 234 214 197 189 188
197 198 203 205 199 197 205 214 208 216 219 230 222 220 214 228 218 231 203 207 225 234 234 237 257 265 272 275 269 265 265 271 278 260 249 249 244 235 234 218 223 241 257 267 286 265 289 303 308 312 314 315 320 324 318 319 329 305 316 327 322 338 294 279 275 292 302 306 303 299 297 293 289 287 282 274 267 260 247 237 234 222 211 194 191
205 200 206 207 203 207 206 214 216 216 217 224 227 223 227 240 246 250 211 207 230 241 252 243 259 263 269 272 272 272 272 273 270 269 252 253 257 253 245 240 233 239 233 253 261 281 267 290 303 296 293 305 302 297 313 310 315 194 318 305 318 277 284 326 285 287 312 308 308 305 302 298 291 285 280 275 272 266 254 240 232 226 218 200 191
201 201 203 204 203 207 216 213 218 212 219 226 221 222 227 234 237 245 240 220 235 247 241 247 249 251 259 269 274 277 280 279 277 277 274 255 249 250 249 246 252 234 241 249 272 283 280 277 291 300 315 311 298 298 302 311 316 331 318 315 310 315 318 322 325 305 301 320 314 312 309 305 299 291 285 281 277 272 261 253 242 232 222 205 194
203 206 205 206 203 205 213 213 213 214 214 217 229 227 230 232 239 233 226 219 229 242 250 252 247 249 251 261 267 266 258 267 277 276 271 272 262 257 243 252 262 260 230 264 275 284 292 288 284 300 302 284 291 292 305 311 320 320 318 318 314 315 318 320 323 332 104 321 319 315 311 308 305 298 291 286 283 282 275 266 254 240 232 220 206
196 210 206 210 199 204 214 212 211 219 215 225 227 229 235 236 242 251 249 235 236 244 244 246 250 249 251 256 263 265 262 266 268 272 277 278 279 279 276 269 268 271 256 243 272 280 288 293 296 295 299 302 299 309 311 309 308 303 306 316 324 324 321 314 316 330 57 309 308 304 304 306 307 303 300 294 291 287 282 273 261 252 241 231 216
199 198 208 210 204 204 217 215 216 225 222 230 230 227 228 234 237 239 241 242 247 248 250 255 255 247 256 260 266 271 273 271 273 280 279 276 276 274 274 270 265 271 274 255 243 269 284 290 291 294 308 309 305 305 307 307 303 310 308 312 306 310 319 320 310 312 343 302 292 289 290 295 298 302 300 295 291 289 286 280 270 259 250 241 229
205 197 190 200 204 209 224 224 224 225 231 231 232 238 236 236 235 240 241 239 244 249 252 253 252 251 252 257 266 269 266 271 274 274 279 280 280 279 277 279 278 279 278 273 270 264 274 282 293 290 289 286 287 289 297 308 313 302 296 293 306 308 309 317 317 315 272 241 251 263 279 283 285 287 290 290 287 285 285 282 273 261 252 246 240
205 209 199 200 202 208 219 228 232 233 234 235 234 242 246 243 239 243 242 241 245 248 251 252 249 246 249 250 252 255 260 265 277 284 284 283 281 276 279 282 285 287 284 281 276 276 277 281 287 294 289 297 299 295 293 294 305 312 309 306 296 283 298 318 324 324 330 334 338 330 285 271 258 273 278 282 285 283 280 280 277 264 249 244 242
213 217 210 205 199 210 212 222 230 230 232 239 237 239 245 245 243 246 251 248 249 249 252 254 257 254 251 251 248 248 251 253 264 270 272 273 272 277 274 277 281 279 282 285 284 285 285 288 290 288 293 290 287 297 285 272 278 270 294 313 314 315 293 310 312 316 321 324 313 237 253 295 296 291 300 287 282 277 275 275 273 262 251 240 241
220 224 226 217 212 216 218 221 224 226 228 236 235 237 242 245 245 244 244 249 254 253 256 256 258 260 257 256 258 255 249 249 253 262 265 272 274 278 274 268 271 273 283 288 287 287 290 293 291 298 297 296 288 281 280 263 281 271 250 297 304 307 311 302 292 298 308 313 314 326 244 233 254 242 246 249 251 260 265 264 257 253 247 238 233
226 227 229 235 236 235 233 230 233 230 236 236 237 233 236 235 240 249 248 247 249 252 253 259 258 255 257 259 256 258 251 240 240 249 264 271 279 281 277 272 271 275 278 282 281 283 283 284 287 281 280 286 286 288 299 298 299 307 303 288 285 286 291 295 296 293 287 291 303 310 313 318 312 317 319 316 307 285 272 235 263 249 246 240 227
212 214 225 230 237 238 238 231 231 234 233 237 211 213 230 249 249 252 249 248 251 250 251 256 260 259 259 259 261 245 239 236 239 240 239 242 239 252 268 274 275 273 276 279 277 276 277 277 280 286 287 288 292 296 297 294 296 282 281 274 283 296 297 290 285 284 297 303 307 300 298 302 307 307 304 306 312 296 308 293 313 317 304 277 236
201 192 210 217 222 227 231 235 234 234 238 235 197 206 215 227 244 254 252 250 246 244 246 248 256 263 266 262 264 246 229 234 240 238 242 239 238 239 243 248 255 265 278 278 278 279 279 278 281 277 280 284 286 294 291 294 294 295 291 283 282 288 293 303 305 303 278 320 303 301 297 297 291 296 296 297 299 302 303 300 304 287 276 275 269
184 204 213 214 215 219 223 230 236 239 243 221 194 210 218 223 225 245 256 258 254 249 248 250 253 259 264 267 267 268 252 245 251 243 230 231 236 241 243 244 243 243 244 253 270 278 278 283 283 284 286 282 286 288 291 295 297 294 287 288 280 280 286 288 290 293 308 328 311 306 298 297 274 282 286 277 283 291 302 296 286 281 276 272 268
195 205 214 217 218 221 221 220 234 240 247 188 197 210 221 224 223 229 254 258 259 257 254 250 252 252 255 262 266 264 272 245 234 245 248 245 227 230 243 251 253 247 242 239 238 247 266 268 271 274 271 277 279 279 282 282 283 283 287 284 284 282 280 279 280 291 295 308 302 295 294 298 294 278 286 286 289 293 297 278 266 270 275 274 269
204 216 224 227 225 222 229 233 238 245 247 205 195 205 216 221 222 213 245 253 257 261 259 256 255 252 247 248 253 259 262 258 250 249 250 252 261 253 244 244 250 245 231 228 233 236 239 254 264 268 268 263 264 268 271 269 270 274 279 282 290 291 287 282 292 286 282 277 279 295 291 291 300 297 293 297 295 287 278 271 268 277 279 277 275
221 223 229 233 234 235 235 237 242 248 248 196 201 210 217 220 221 207 242 245 252 254 253 253 251 252 252 249 250 256 262 262 260 260 273 278 275 269 265 266 263 265 265 257 245 237 227 229 239 247 260 266 268 270 272 270 266 266 268 278 285 286 285 285 277 262 267 248 239 241 275 290 297 288 288 298 301 294 292 281 238 260 273 277 276
207 212 221 230 233 232 232 239 248 245 254 145 205 220 225 233 204 219 227 231 240 246 248 251 251 250 251 253 255 259 260 263 266 232 239 268 274 272 270 268 269 266 263 252 242 246 255 265 262 264 268 275 285 284 286 285 287 284 287 280 269 261 268 275 275 278 271 275 212 227 262 281 288 284 290 294 295 290 293 294 232 221 258 276 273
159 169 191 194 198 230 236 243 250 258 259 107 153 219 181 139 175 227 229 234 236 239 245 250 254 255 254 255 256 267 270 265 285 132 193 217 262 268 272 275 279 282 276 273 220 220 231 237 248 258 265 268 268 268 269 270 263 278 287 281 269 267 270 274 280 284 286 294 278 243 265 285 286 282 285 291 293 291 289 284 287 199 210 244 255
119 124 143 156 153 189 237 247 256 271 268 109 123 277 123 145 250 244 239 239 246 248 251 248 252 255 258 266 272 275 280 280 58 110 168 206 253 261 268 275 279 277 276 276 282 225 206 225 236 242 246 250 254 258 262 263 262 240 234 250 260 266 265 266 276 288 294 294 287 270 248 270 296 293 293 293 289 272 272 272 274 276 199 217 223
76 76 80 89 84 70 59 14 55 270 265 99 47 34 53 129 252 247 238 254 256 260 261 253 244 251 250 242 237 255 273 305 337 325 207 238 260 263 264 269 270 269 271 288 287 288 289 280 257 248 245 240 241 241 243 242 245 229 227 240 257 250 257 265 273 286 289 284 314 150 256 295 302 300 302 304 299 297 292 281 271 267 273 277 247